map of GYN home
Great Circle Mapper logo
GYN - Airport
Location
City:  Goiania, Goiás, Brazil
Name:Santa Genoveva
ICAO / IATA:SBGO / GYN

Details
Type:Airport (Aerodrome, Airfield)
Use:Public/Civil
Latitude:16°37'55"S (-16.632032)
Longitude:49°13'14"W (-49.220685)
Datum:WGS 1984
Elevation:2450 ft (747 m)
Runways:1
Longest:8204 × 148 ft (2501 × 45 m), paved

Time
Time Zone:UTC-3 (DST-2)
Local Time:

Weather
METAR:SBGO 250200Z 13006KT 9999 FEW030 BKN100 22/19 Q1017
TAF:SBGO 250200Z 2506/2606 09005KT 9999 FEW030 TN21/2506Z TX29/2516Z
BECMG 2512/2514 SCT030 PROB40 2518/2521 TSRA SCT030 FEW040CB
RMK PCE

Related Locations
Nearby:
Farthest:VRC: 11959 mi / 19246 km
Virac, Catanduanes Island, PH

Find:

   beyond  
but within

Other Information
Maps:
NOTAMs:
Links:
Sources:

  
flag of Brazil
flag of Goiás
  

Sectional Chart

Flight Planning
at skyvector.com

Satellite Image

Google Maps Satellite View

 

Copyright © 2004-2014 Karl L. Swartz. All rights reserved.
The Great Circle Mapper name and logo are trademarks of the Great Circle Mapper.
All other trademarks mentioned herein belong to their respective owners.
Please see credits for attibutions and further copyright information.

  Follow gcmap on Facebook Follow gcmap on Twitter

hCard Microformat

Geo Microformat